Mackinac Island, MI

3:46 AM EDT on July 24, 2016 (GMT -0400)
Mackinac Island

Weather History for KMCD - April, 2013

Change the Weather History Date:

Tuesday, April 2, 2013

  Actual Average Record
Temperature  
Mean Temperature 24 °F -  
Max Temperature 29 °F 38 °F 56 °F (1981)
Min Temperature 19 °F 24 °F 12 °F (1975)
Degree Days  
Heating Degree Days 41    
Moisture  
Dew Point 14 °F    
Average Humidity 66    
Maximum Humidity 87    
Minimum Humidity 38    
Precipitation  
Precipitation 0.00 in - - ()
Sea Level Pressure  
Sea Level Pressure 30.08 in    
Wind  
Wind Speed 12 mph (WNW)    
Max Wind Speed 20 mph    
Max Gust Speed 26 mph    
Visibility 9 miles    
Events Snow    
Averages and records for this station are not official NWS values.
T = Trace of Precipitation, MM = Missing Value Source: NWS Daily Summary

Daily Weather History Graph

Daily Weather History Graph

Search for Another Location

Airport or City:

Trip Planner

Search our weather history database for the weather conditions in past years. The results will help you decide how hot, cold, wet, or windy it might be!

Date:

Astronomy

Apr. 02, 2013 Rise Set
Actual Time 7:16 AM EDT 8:08 PM EDT
Civil Twilight 6:45 AM EDT 8:38 PM EDT
Nautical Twilight 6:09 AM EDT 9:15 PM EDT
Astronomical Twilight 5:32 AM EDT 9:53 PM EDT
Moon 2:25 AM EDT (4/2) 11:53 AM EDT (4/2)
Length of Visible Light 13h 52m
Length of Day
12h 52m
Waning Gibbous, 56% of the Moon is Illuminated
Apr 2
Waning Gibbous
Apr 3
Last Quarter
Apr 10
New
Apr 18
First Quarter
Apr 25
Full

Hourly Weather History & Observations

Time (EDT) Temp. Windchill Dew Point Humidity Pressure Visibility Wind Dir Wind Speed Gust Speed Precip Events Conditions
12:15 AM 21.9 °F 8.7 °F 17.6 °F 83% 30.00 in 10.0 mi WNW 15.0 mph 21.9 mph N/A   Scattered Clouds
12:36 AM 22.1 °F 8.9 °F 18.3 °F 85% 30.00 in 10.0 mi West 15.0 mph 20.7 mph N/A   Mostly Cloudy
12:55 AM 22.1 °F 9.5 °F 17.8 °F 83% 30.00 in 5.0 mi West 13.8 mph 19.6 mph N/A Snow Light Snow
1:15 AM 22.1 °F 8.9 °F 16.9 °F 80% 30.00 in 10.0 mi West 15.0 mph 18.4 mph N/A   Scattered Clouds
1:36 AM 22.1 °F 9.5 °F 18.1 °F 85% 30.00 in 10.0 mi West 13.8 mph 18.4 mph N/A   Scattered Clouds
1:55 AM 22.1 °F 12.0 °F 18.0 °F 84% 30.00 in 10.0 mi West 9.2 mph 18.4 mph N/A Snow Light Snow
2:15 AM 22.3 °F 12.2 °F 18.5 °F 85% 30.00 in 7.0 mi WNW 9.2 mph 17.3 mph N/A Snow Light Snow
2:36 AM 22.3 °F 10.8 °F 19.0 °F 87% 30.00 in 7.0 mi WNW 11.5 mph 17.3 mph N/A Snow Light Snow
2:55 AM 22.5 °F 11.1 °F 19.0 °F 87% 30.00 in 10.0 mi WNW 11.5 mph 17.3 mph N/A   Overcast
3:15 AM 22.5 °F 11.7 °F 19.0 °F 87% 30.00 in 7.0 mi WNW 10.4 mph 18.4 mph N/A Snow Light Snow
3:35 AM 21.9 °F 11.7 °F 18.5 °F 87% 30.00 in 10.0 mi WNW 9.2 mph 16.1 mph N/A   Mostly Cloudy
3:55 AM 21.6 °F 11.3 °F 18.3 °F 87% 30.00 in 10.0 mi WNW 9.2 mph - N/A   Scattered Clouds
4:15 AM 21.7 °F 12.3 °F 18.1 °F 86% 30.00 in 10.0 mi WNW 8.1 mph 16.1 mph N/A   Mostly Cloudy
4:35 AM 21.2 °F 10.9 °F 17.6 °F 86% 29.99 in 10.0 mi WNW 9.2 mph 16.1 mph N/A   Scattered Clouds
4:55 AM 21.2 °F 12.6 °F 17.6 °F 86% 29.99 in 10.0 mi WNW 6.9 mph 16.1 mph N/A   Clear
5:15 AM 21.0 °F 9.3 °F 17.4 °F 86% 30.00 in 10.0 mi WNW 11.5 mph 16.1 mph N/A   Clear
5:35 AM 21.0 °F 9.3 °F 17.2 °F 85% 30.00 in 10.0 mi WNW 11.5 mph 16.1 mph N/A   Clear
5:55 AM 21.0 °F 10.6 °F 16.7 °F 83% 30.00 in 10.0 mi WNW 9.2 mph - N/A   Clear
6:16 AM 20.3 °F 10.6 °F 15.8 °F 83% 30.01 in 10.0 mi NW 8.1 mph - N/A   Clear
6:35 AM 20.1 °F 8.8 °F 15.1 °F 81% 30.02 in 10.0 mi WNW 10.4 mph - N/A   Clear
6:55 AM 19.4 °F 9.5 °F 14.9 °F 83% 30.02 in 10.0 mi WNW 8.1 mph - N/A   Clear
7:16 AM 19.6 °F 9.7 °F 15.1 °F 83% 30.02 in 10.0 mi WNW 8.1 mph - N/A   Clear
7:35 AM 19.8 °F 9.9 °F 15.6 °F 84% 30.03 in 10.0 mi WNW 8.1 mph - N/A   Clear
7:55 AM 19.8 °F 11.9 °F 15.8 °F 85% 30.04 in 10.0 mi WNW 5.8 mph - N/A   Clear
8:15 AM 20.5 °F 10.8 °F 16.3 °F 84% 30.05 in 10.0 mi WNW 8.1 mph - N/A   Clear
8:35 AM 20.8 °F 11.2 °F 16.3 °F 83% 30.05 in 10.0 mi WNW 8.1 mph - N/A   Scattered Clouds
8:55 AM 22.1 °F 12.0 °F 16.7 °F 80% 30.05 in 10.0 mi WNW 9.2 mph - N/A   Mostly Cloudy
9:15 AM 22.8 °F 13.6 °F 16.5 °F 77% 30.06 in 10.0 mi West 8.1 mph - N/A   Scattered Clouds
9:36 AM 23.9 °F 13.5 °F 15.6 °F 71% 30.06 in 10.0 mi WNW 10.4 mph - N/A   Clear
9:55 AM 25.0 °F 14.8 °F 15.6 °F 68% 30.06 in 10.0 mi West 10.4 mph - N/A   Scattered Clouds
10:15 AM 26.4 °F 15.5 °F 14.5 °F 61% 30.06 in 10.0 mi WNW 12.7 mph 17.3 mph N/A   Mostly Cloudy
10:36 AM 26.8 °F 15.4 °F 12.9 °F 56% 30.06 in 10.0 mi WNW 13.8 mph 21.9 mph N/A   Overcast
10:55 AM 26.2 °F 14.2 °F 12.0 °F 55% 30.07 in 10.0 mi West 15.0 mph 20.7 mph N/A   Overcast
11:15 AM 25.7 °F 16.4 °F 13.6 °F 60% 30.07 in 7.0 mi WNW 9.2 mph - N/A Snow Light Snow
11:36 AM 25.3 °F 13.1 °F 17.6 °F 72% 30.08 in 1.2 mi West 15.0 mph 19.6 mph N/A Snow Light Snow
11:55 AM 26.2 °F 14.2 °F 17.8 °F 70% 30.08 in 2.0 mi WNW 15.0 mph 18.4 mph N/A Snow Light Snow
12:15 PM 27.5 °F 16.3 °F 16.9 °F 64% 30.08 in 7.0 mi WNW 13.8 mph 20.7 mph N/A   Overcast
12:36 PM 28.4 °F 15.8 °F 16.0 °F 60% 30.08 in 10.0 mi West 18.4 mph 24.2 mph N/A   Overcast
12:55 PM 26.6 °F 15.7 °F 16.7 °F 66% 30.08 in 4.0 mi WNW 12.7 mph 18.4 mph N/A Snow Light Snow
1:15 PM 27.0 °F 15.6 °F 18.0 °F 69% 30.08 in 5.0 mi West 13.8 mph 21.9 mph N/A Snow Light Snow
1:36 PM 27.3 °F 14.0 °F 17.2 °F 66% 30.08 in 7.0 mi West 19.6 mph 25.3 mph N/A   Overcast
1:55 PM 29.7 °F 18.2 °F 12.0 °F 48% 30.08 in 10.0 mi West 16.1 mph 23.0 mph N/A   Overcast
2:15 PM 29.3 °F 18.6 °F 14.9 °F 55% 30.08 in 10.0 mi West 13.8 mph 23.0 mph N/A   Overcast
2:36 PM 29.5 °F 18.4 °F 10.6 °F 45% 30.09 in 10.0 mi WNW 15.0 mph 25.3 mph N/A   Overcast
2:55 PM 28.0 °F 16.1 °F 12.2 °F 52% 30.10 in 10.0 mi WNW 16.1 mph 23.0 mph N/A   Overcast
3:15 PM 28.8 °F 18.4 °F 11.7 °F 49% 30.10 in 10.0 mi NW 12.7 mph 21.9 mph N/A   Overcast
3:36 PM 28.2 °F 16.8 °F 10.9 °F 48% 30.10 in 10.0 mi NW 15.0 mph 24.2 mph N/A   Overcast
3:55 PM 28.0 °F 19.3 °F 12.9 °F 53% 30.10 in 10.0 mi NW 9.2 mph 18.4 mph N/A   Mostly Cloudy
4:15 PM 28.4 °F 17.0 °F 10.4 °F 47% 30.10 in 10.0 mi WNW 15.0 mph 24.2 mph N/A   Overcast
4:35 PM 28.4 °F 18.5 °F 9.0 °F 44% 30.10 in 10.0 mi WNW 11.5 mph 21.9 mph N/A   Overcast
4:55 PM 27.9 °F 17.3 °F 8.6 °F 44% 30.11 in 10.0 mi WNW 12.7 mph 18.4 mph N/A   Mostly Cloudy
5:16 PM 29.8 °F 18.4 °F 11.1 °F 46% 30.12 in 10.0 mi WNW 16.1 mph 24.2 mph N/A   Mostly Cloudy
5:35 PM 28.8 °F 17.5 °F 9.9 °F 45% 30.12 in 10.0 mi NNW 15.0 mph 26.5 mph N/A   Overcast
5:48 PM 29.8 °F 20.9 °F 9.7 °F 43% 30.13 in 10.0 mi NW 10.4 mph 21.9 mph N/A   Overcast
6:20 PM 27.0 °F 15.6 °F 5.2 °F 40% 30.14 in 10.0 mi WNW 13.8 mph 24.2 mph N/A   Scattered Clouds
6:36 PM 27.5 °F 15.9 °F 5.4 °F 39% 30.14 in 10.0 mi WNW 15.0 mph 20.7 mph N/A   Scattered Clouds
6:55 PM 27.5 °F 15.9 °F 5.0 °F 38% 30.15 in 10.0 mi WNW 15.0 mph 25.3 mph N/A   Clear
7:15 PM 27.0 °F 15.6 °F 5.9 °F 41% 30.15 in 10.0 mi WNW 13.8 mph 21.9 mph N/A   Clear
7:36 PM 25.7 °F 13.1 °F 8.2 °F 48% 30.16 in 10.0 mi NW 16.1 mph 25.3 mph N/A   Clear
7:55 PM 24.8 °F 13.4 °F 7.9 °F 49% 30.17 in 10.0 mi NW 12.7 mph 23.0 mph N/A   Clear
8:15 PM 23.9 °F 11.2 °F 8.2 °F 51% 30.17 in 10.0 mi NW 15.0 mph 25.3 mph N/A   Clear
8:36 PM 23.0 °F 11.1 °F 8.4 °F 54% 30.18 in 10.0 mi NNW 12.7 mph 20.7 mph N/A   Clear
8:55 PM 23.0 °F 11.1 °F 8.1 °F 53% 30.19 in 10.0 mi NW 12.7 mph 20.7 mph N/A   Clear
9:15 PM 22.6 °F 11.3 °F 8.6 °F 55% 30.20 in 10.0 mi NW 11.5 mph 19.6 mph N/A   Clear
9:36 PM 22.1 °F 10.6 °F 9.1 °F 58% 30.20 in 10.0 mi WNW 11.5 mph 18.4 mph N/A   Clear
9:55 PM 22.1 °F 10.6 °F 9.5 °F 58% 30.20 in 10.0 mi WNW 11.5 mph 17.3 mph N/A   Clear
10:15 PM 22.1 °F 10.0 °F 10.2 °F 60% 30.20 in 10.0 mi WNW 12.7 mph 18.4 mph N/A   Clear
10:36 PM 22.1 °F 10.0 °F 10.6 °F 61% 30.20 in 10.0 mi WNW 12.7 mph - N/A   Clear
10:55 PM 22.1 °F 10.0 °F 10.8 °F 62% 30.20 in 10.0 mi WNW 12.7 mph 18.4 mph N/A   Clear
11:15 PM 22.1 °F 12.8 °F 10.9 °F 62% 30.20 in 10.0 mi WNW 8.1 mph - N/A   Clear
11:35 PM 22.3 °F 10.8 °F 11.3 °F 63% 30.20 in 10.0 mi West 11.5 mph 16.1 mph N/A   Clear
11:55 PM 22.6 °F 11.3 °F 11.3 °F 62% 30.20 in 10.0 mi WNW 11.5 mph 16.1 mph N/A   Clear